{"data":{"norad_id":60921,"intl_designator":"2024-154U","name":"STARLINK-32356","alt_names":[],"object_type":"PAYLOAD","status":"ACTIVE","operator":null,"country":"US","launch_date":"2024-08-31","launch_site_code":"AFETR","launch_vehicle":null,"mission":null,"orbit_class":"UNKNOWN","rcs_meters":null,"size_class":null,"mass_kg":null,"dimensions":null,"purposes":["comms"],"wikipedia_slug":null,"has_3d_model":false,"image_url":null,"decayed_at":null,"tle_current":{"epoch":"2026-05-24T19:53:36.992832Z","epoch_age_seconds":83760,"freshness":"FRESH","line1":"1 60921U 24154U   26144.82890038  .00000963  00000+0  44659-4 0  9998","line2":"2 60921  53.1614 290.0784 0001341  84.5030 275.6124 15.30193260 98003","mean_motion":15.3019326,"eccentricity":0.0001341,"inclination_deg":53.1614,"raan_deg":290.0784,"arg_perigee_deg":84.503,"mean_anomaly_deg":275.6124,"bstar":4.4659e-5,"rev_number":9800,"period_min":94.105760209661,"perigee_km":474.31615670709,"apogee_km":476.1542311295,"semimajor_km":6853.3721939183,"source":"CELESTRAK","updated_at":"2026-05-25T13:38:19.316080Z"}}}